Вернуться в каталог

FENGYUN 1C DEB

АктивенPO
NORAD 36657·DEBRIS·🇨🇳 China

Запущен May 10, 1999 с Taiyuan Satellite Launch Center

Loading…

Ближайшие Пролёты (ближайшие 24 часа)

TLE

УстаревающийSource: Space-Track

Эпоха: Sep 7, 2026, 06:35 UTC

1 36657U 99025DYB 26250.27448614  .00001256  00000-0  21769-3 0  9995
2 36657  99.4297  85.9012 0101731 331.4275  28.1372 14.67296654701924

Отслеживайте FENGYUN 1C DEB в реальном времени с AllMySat

Download on the App Store